CW0234 Weather Reports


time (UTC)temp
C
wind
direction
speed
KPH
gust
KPH
rain 1hr
cm
rain 24hr
cm
rain mn
cm
humidity
%
barometer
mb
20260503193231 17 172 4.8 4.8 0.00 0.00 0.00 60 1012.0
20260503192727 17 166 4.8 8.0 0.00 0.00 0.00 60 1012.3
20260503192222 17 167 0.0 0.0 0.00 0.00 0.00 61 1012.0
20260503191720 17 168 0.0 1.6 0.00 0.00 0.00 61 1012.0
20260503191217 17 176 3.2 3.2 0.00 0.00 0.00 60 1012.0
20260503190713 16 179 3.2 3.2 0.00 0.00 0.00 62 1011.9
20260503190210 16 172 0.0 1.6 0.00 0.00 0.00 64 1012.0
20260503185708 16 177 4.8 4.8 0.00 0.00 0.00 63 1012.3
20260503185202 16 185 4.8 4.8 0.00 0.00 0.00 64 1012.1
20260503184657 16 180 9.7 11.3 0.00 0.00 0.00 62 1012.3
20260503184154 16 166 4.8 4.8 0.00 0.00 0.00 62 1012.1
20260503183650 16 172 0.0 0.0 0.00 0.00 0.00 61 1012.2
20260503183148 16 176 0.0 1.6 0.00 0.00 0.00 62 1012.2
20260503182646 16 184 4.8 4.8 0.00 0.00 0.00 64 1012.3
20260503182144 16 171 0.0 1.6 0.00 0.00 0.00 65 1011.9
20260503181641 15 175 0.0 0.0 0.00 0.00 0.00 66 1012.1
20260503181137 15 179 0.0 1.6 0.00 0.00 0.00 67 1012.2
20260503180634 15 184 1.6 3.2 0.00 0.00 0.00 69 1012.1
20260503180132 15 188 3.2 3.2 0.00 0.00 0.00 69 1012.2
20260503175629 15 180 4.8 4.8 0.00 0.00 0.00 70 1012.3
20260503175126 15 185 4.8 4.8 0.00 0.00 0.00 70 1012.1
20260503174623 15 189 4.8 4.8 0.00 0.00 0.00 73 1012.3
20260503174120 14 180 4.8 8.0 0.00 0.00 0.00 75 1012.2
20260503173615 14 179 4.8 4.8 0.00 0.00 0.00 76 1012.2
20260503173112 15 176 3.2 3.2 0.00 0.00 0.00 74 1012.1
20260503172609 15 184 4.8 4.8 0.00 0.00 0.00 73 1012.1
20260503172106 15 176 0.0 0.0 0.00 0.00 0.00 71 1012.3
20260503171603 15 172 0.0 1.6 0.00 0.00 0.00 72 1012.0
20260503171100 15 168 0.0 0.0 0.00 0.00 0.00 75 1012.1
20260503170556 15 178 3.2 4.8 0.00 0.00 0.00 75 1012.1
20260503150949 13 169 0.0 0.0 0.00 0.00 0.00 83 1011.9
20260503150445 13 171 0.0 1.6 0.00 0.00 0.00 83 1011.8
20260503131338 12 171 0.0 0.0 0.00 0.00 0.00 85 1010.4
20260503130836 12 171 0.0 0.0 0.00 0.00 0.00 85 1010.6
20260503130333 12 171 0.0 0.0 0.00 0.00 0.00 85 1010.5
20260503110727 13 174 0.0 0.0 0.00 0.00 0.00 80 1010.3
20260503110224 13 171 0.0 0.0 0.00 0.00 0.00 80 1010.3
20260503100150 13 173 0.0 1.6 0.00 0.00 0.00 80 1010.2
20260503090109 13 171 0.0 0.0 0.00 0.00 0.00 80 1010.4
20260503081539 13 173 0.0 0.0 0.00 0.00 0.00 79 1011.1
20260503081036 13 172 0.0 0.0 0.00 0.00 0.00 79 1011.1
20260503080532 13 173 0.0 0.0 0.00 0.00 0.00 79 1011.0
20260503072506 13 198 1.6 3.2 0.00 0.00 0.00 80 1011.1
20260503072003 13 161 0.0 1.6 0.00 0.00 0.00 80 1011.2
20260503071500 13 176 1.6 1.6 0.00 0.00 0.00 80 1011.2
20260503070955 13 184 1.6 1.6 0.00 0.00 0.00 80 1011.2
20260503070453 13 149 1.6 3.2 0.00 0.00 0.00 80 1011.1
20260503054912 13 193 3.2 3.2 0.00 0.00 0.00 79 1011.4
20260503054408 13 285 4.8 4.8 0.00 0.00 0.00 79 1011.4
20260503053906 13 170 1.6 1.6 0.00 0.00 0.00 79 1011.5
20260503053404 13 174 1.6 1.6 0.00 0.00 0.00 79 1011.6
20260503052859 13 172 0.0 0.0 0.00 0.00 0.00 79 1011.6
20260503052357 13 173 1.6 1.6 0.00 0.00 0.00 79 1011.6
20260503051853 13 172 1.6 1.6 0.00 0.00 0.00 78 1011.5
20260503051349 13 173 3.2 3.2 0.00 0.00 0.00 78 1011.7
20260503050846 13 172 0.0 0.0 0.00 0.00 0.00 79 1011.7
20260503050343 13 173 0.0 0.0 0.00 0.00 0.00 79 1011.5
20260503045840 13 175 1.6 3.2 0.00 0.00 0.00 78 1011.6
20260503045338 13 189 3.2 3.2 0.00 0.00 0.00 78 1011.4
20260503044834 13 179 1.6 1.6 0.00 0.00 0.00 79 1011.6
20260503044331 13 119 3.2 4.8 0.00 0.00 0.00 79 1011.3
20260503043828 13 173 0.0 1.6 0.00 0.00 0.00 79 1011.4
20260503043325 13 227 4.8 8.0 0.00 0.00 0.00 79 1011.4
20260503042821 13 170 3.2 3.2 0.00 0.00 0.00 79 1011.3
20260503042318 13 166 0.0 0.0 0.00 0.00 0.00 79 1011.2
20260503041814 13 179 1.6 1.6 0.00 0.00 0.00 79 1011.5
20260503041312 13 325 4.8 8.0 0.00 0.00 0.00 78 1011.3
20260503040809 13 213 1.6 3.2 0.00 0.00 0.00 78 1011.1
20260503040307 13 195 1.6 3.2 0.00 0.00 0.00 79 1011.1
20260503035803 13 179 1.6 1.6 0.00 0.00 0.00 79 1011.0
20260503035301 13 161 3.2 3.2 0.00 0.00 0.00 79 1011.0
20260503034758 13 349 4.8 8.0 0.00 0.00 0.00 79 1011.1
20260503034255 13 166 0.0 1.6 0.00 0.00 0.00 79 1010.8
20260503033752 13 273 3.2 4.8 0.00 0.00 0.00 79 1010.8
20260503033249 13 358 4.8 4.8 0.00 0.00 0.00 78 1011.0
20260503032747 14 74 4.8 9.7 0.00 0.00 0.00 78 1010.5
20260503032246 14 175 3.2 3.2 0.00 0.00 0.00 78 1010.9
20260503031743 14 237 3.2 3.2 0.00 0.00 0.00 79 1010.6
20260503031241 14 323 4.8 4.8 0.00 0.00 0.00 79 1010.6
20260503030737 14 181 3.2 3.2 0.00 0.00 0.00 79 1010.6
20260503030234 14 6 6.4 9.7 0.00 0.00 0.00 78 1010.6
20260503025730 14 70 4.8 4.8 0.00 0.00 0.00 78 1010.5
20260503025228 14 140 1.6 1.6 0.00 0.00 0.00 77 1010.4
20260503024724 14 331 1.6 3.2 0.00 0.00 0.00 77 1010.5
20260503024222 15 187 3.2 3.2 0.00 0.00 0.00 77 1010.5
20260503023718 15 181 3.2 3.2 0.00 0.00 0.00 77 1010.3
20260503023215 15 144 4.8 4.8 0.00 0.00 0.00 76 1010.3
20260503022711 15 176 1.6 1.6 0.00 0.00 0.00 76 1010.2
20260503022211 15 4 4.8 4.8 0.00 0.00 0.00 76 1010.2
20260503021708 15 0 4.8 4.8 0.00 0.00 0.00 75 1010.2
20260503021159 15 61 6.4 9.7 0.00 0.00 0.00 75 1010.0
20260503020656 15 134 1.6 3.2 0.00 0.00 0.00 75 1010.3
20260503020154 15 177 1.6 1.6 0.00 0.00 0.00 75 1010.2
20260503015650 15 172 1.6 1.6 0.00 0.00 0.00 75 1010.1
20260503015148 15 193 1.6 3.2 0.00 0.00 0.00 74 1010.3
20260503014643 16 191 3.2 4.8 0.00 0.00 0.00 74 1010.2
20260503014142 16 2 4.8 4.8 0.00 0.00 0.00 74 1010.1
20260503013638 16 34 4.8 4.8 0.00 0.00 0.00 73 1010.2
20260503013136 16 162 3.2 4.8 0.00 0.00 0.00 73 1010.2
20260503012633 16 257 4.8 4.8 0.00 0.00 0.00 73 1010.3
20260503012130 16 305 4.8 8.0 0.00 0.00 0.00 73 1010.2
20260503011627 16 343 4.8 8.0 0.00 0.00 0.00 72 1010.3
20260503011124 16 179 1.6 3.2 0.00 0.00 0.00 71 1010.2
20260503010620 16 186 3.2 4.8 0.00 0.00 0.00 72 1010.4
20260503010117 16 168 3.2 3.2 0.00 0.00 0.00 72 1010.1
20260503005614 17 46 9.7 12.9 0.00 0.00 0.00 70 1010.3
20260503005112 17 163 3.2 3.2 0.00 0.00 0.00 70 1010.2
20260503004607 17 326 8.0 8.0 0.00 0.00 0.00 70 1010.3
20260503004106 17 171 4.8 4.8 0.00 0.00 0.00 70 1010.1
20260503003603 17 343 9.7 12.9 0.00 0.00 0.00 70 1010.2
20260503003100 18 356 6.4 8.0 0.00 0.00 0.00 66 1010.3
20260503002556 18 138 4.8 4.8 0.00 0.00 0.00 67 1010.0
20260503002053 19 257 1.6 3.2 0.00 0.00 0.00 65 1010.1
20260503001549 19 141 1.6 1.6 0.00 0.00 0.00 65 1010.1
20260503001047 20 268 4.8 4.8 0.00 0.00 0.00 64 1010.1
20260503000544 19 197 1.6 3.2 0.00 0.00 0.00 65 1010.1
20260503000041 19 5 8.0 12.9 0.00 0.00 0.00 64 1010.1
20260502235537 19 330 4.8 8.0 0.00 0.00 0.00 65 1010.0
20260502235036 19 15 11.3 16.1 0.00 0.00 0.00 64 1010.2
20260502234531 20 189 4.8 4.8 0.00 0.00 0.00 63 1010.0
20260502234029 20 341 8.0 11.3 0.00 0.00 0.00 63 1010.0
20260502233529 20 303 1.6 4.8 0.00 0.00 0.00 62 1009.9
20260502233027 20 358 6.4 8.0 0.00 0.00 0.00 62 1010.0
20260502232523 21 22 4.8 4.8 0.00 0.00 0.00 61 1010.2
20260502232020 20 314 3.2 3.2 0.00 0.00 0.00 62 1010.0
20260502231517 20 147 3.2 3.2 0.00 0.00 0.00 63 1010.1
20260502231015 21 40 8.0 9.7 0.00 0.00 0.00 61 1010.2
20260502230513 21 190 3.2 3.2 0.00 0.00 0.00 60 1010.0
20260502230011 21 169 1.6 1.6 0.00 0.00 0.00 61 1010.3
20260502225511 21 183 4.8 4.8 0.00 0.00 0.00 60 1010.4
20260502225009 21 192 3.2 3.2 0.00 0.00 0.00 61 1010.2
20260502224505 21 339 9.7 12.9 0.00 0.00 0.00 61 1010.5
20260502224002 21 202 4.8 4.8 0.00 0.00 0.00 60 1010.5
20260502223500 21 207 3.2 3.2 0.00 0.00 0.00 59 1010.5
20260502222957 22 197 3.2 3.2 0.00 0.00 0.00 58 1010.5
20260502222455 22 161 3.2 3.2 0.00 0.00 0.00 58 1010.6
20260502221950 22 179 3.2 4.8 0.00 0.00 0.00 57 1010.5
20260502221447 22 201 3.2 4.8 0.00 0.00 0.00 57 1010.8
20260502220944 22 175 0.0 0.0 0.00 0.00 0.00 58 1010.8
20260502220440 22 179 1.6 1.6 0.00 0.00 0.00 57 1010.9
20260502215937 22 180 1.6 1.6 0.00 0.00 0.00 59 1011.0
20260502215434 22 185 1.6 3.2 0.00 0.00 0.00 60 1010.9
20260502214931 21 198 1.6 3.2 0.00 0.00 0.00 60 1011.0
20260502214427 22 194 1.6 3.2 0.00 0.00 0.00 59 1010.9
20260502213925 22 158 1.6 1.6 0.00 0.00 0.00 59 1011.1
20260502213421 21 180 0.0 0.0 0.00 0.00 0.00 61 1011.1
20260502212920 21 181 1.6 1.6 0.00 0.00 0.00 61 1011.1
20260502212419 21 177 3.2 4.8 0.00 0.00 0.00 62 1011.2
20260502211916 21 180 0.0 1.6 0.00 0.00 0.00 61 1011.4
20260502211411 21 179 1.6 1.6 0.00 0.00 0.00 60 1011.3
20260502210909 21 164 0.0 1.6 0.00 0.00 0.00 61 1011.5
20260502210405 21 176 3.2 3.2 0.00 0.00 0.00 61 1011.5
20260502205903 21 177 0.0 1.6 0.00 0.00 0.00 63 1011.7
20260502205358 20 164 1.6 1.6 0.00 0.00 0.00 63 1011.9
20260502204856 20 178 0.0 1.6 0.00 0.00 0.00 64 1012.0
20260502204353 21 171 1.6 3.2 0.00 0.00 0.00 64 1012.1
20260502203850 21 173 0.0 0.0 0.00 0.00 0.00 61 1012.0
20260502203348 21 170 0.0 1.6 0.00 0.00 0.00 63 1012.0
20260502202843 20 190 1.6 3.2 0.00 0.00 0.00 66 1012.1
20260502202341 19 176 3.2 3.2 0.00 0.00 0.00 68 1012.0
20260502201839 19 157 1.6 1.6 0.00 0.00 0.00 67 1012.2
20260502201335 20 192 1.6 1.6 0.00 0.00 0.00 65 1012.2
20260502200831 19 175 4.8 4.8 0.00 0.00 0.00 67 1012.3
20260502200327 18 176 1.6 3.2 0.00 0.00 0.00 69 1012.2
20260502195825 18 172 0.0 1.6 0.00 0.00 0.00 70 1012.5
20260502195321 18 184 1.6 3.2 0.00 0.00 0.00 68 1012.5
20260502194818 18 166 3.2 3.2 0.00 0.00 0.00 71 1012.7
20260502194315 17 150 1.6 3.2 0.00 0.00 0.00 71 1012.5
20260502193811 17 162 3.2 4.8 0.00 0.00 0.00 71 1012.7
20260502193308 17 169 0.0 0.0 0.00 0.00 0.00 73 1012.6